Year,Month,Day,Hour,Minute,Value (Times are PST for temperature in C)
2021,04,18,08,09,12.10
2021,04,18,08,10,12.20
2021,04,18,08,11,12.30
2021,04,18,08,12,12.30
2021,04,18,08,13,12.40
2021,04,18,08,14,12.50
2021,04,18,08,15,12.60
2021,04,18,08,16,12.80
2021,04,18,08,17,12.90
2021,04,18,08,18,13.00
2021,04,18,08,19,13.20
2021,04,18,08,20,13.30
2021,04,18,08,21,13.50
2021,04,18,08,22,13.60
2021,04,18,08,23,13.70
2021,04,18,08,24,13.80
2021,04,18,08,25,13.90
2021,04,18,08,26,14.00
2021,04,18,08,27,14.10
2021,04,18,08,28,14.20
2021,04,18,08,29,14.40
2021,04,18,08,30,14.50
2021,04,18,08,31,14.60
2021,04,18,08,32,14.70
2021,04,18,08,33,14.80
2021,04,18,08,34,14.90
2021,04,18,08,35,15.00
2021,04,18,08,36,15.00
2021,04,18,08,37,15.10
2021,04,18,08,38,15.10
2021,04,18,08,39,15.20
2021,04,18,08,40,15.20
2021,04,18,08,41,15.30
2021,04,18,08,42,15.30
2021,04,18,08,43,15.30
2021,04,18,08,44,15.30
2021,04,18,08,45,15.30
2021,04,18,08,46,15.40
2021,04,18,08,47,15.40
2021,04,18,08,48,15.40
2021,04,18,08,49,15.50
2021,04,18,08,50,15.50
2021,04,18,08,51,15.50
2021,04,18,08,52,15.60
2021,04,18,08,53,15.60
2021,04,18,08,54,15.60
2021,04,18,08,55,15.70
2021,04,18,08,56,15.70
2021,04,18,08,57,15.80
2021,04,18,08,58,15.80
2021,04,18,08,59,15.80
2021,04,18,09,00,15.80
2021,04,18,09,01,15.80
2021,04,18,09,02,15.80
2021,04,18,09,03,15.80
2021,04,18,09,04,15.80
2021,04,18,09,05,15.80
2021,04,18,09,06,15.90
2021,04,18,09,07,15.90
2021,04,18,09,08,15.90
2021,04,18,09,09,16.00
2021,04,18,09,10,16.10
2021,04,18,09,11,16.10
2021,04,18,09,12,16.10
2021,04,18,09,13,16.20
2021,04,18,09,14,16.20
2021,04,18,09,15,16.20
2021,04,18,09,16,16.20
2021,04,18,09,17,16.20
2021,04,18,09,18,16.20
2021,04,18,09,19,16.20
2021,04,18,09,20,16.20
2021,04,18,09,21,16.20
2021,04,18,09,22,16.20
2021,04,18,09,23,16.30
2021,04,18,09,24,16.30
2021,04,18,09,25,16.30
2021,04,18,09,26,16.40
2021,04,18,09,27,16.40
2021,04,18,09,28,16.40
2021,04,18,09,29,16.60
2021,04,18,09,30,16.60
2021,04,18,09,31,16.70
2021,04,18,09,32,16.70
2021,04,18,09,33,16.70
2021,04,18,09,34,16.70
2021,04,18,09,35,16.70
2021,04,18,09,36,16.70
2021,04,18,09,37,16.70
2021,04,18,09,38,16.70
2021,04,18,09,39,16.70
2021,04,18,09,40,16.70
2021,04,18,09,41,16.70
2021,04,18,09,42,16.70
2021,04,18,09,43,16.70
2021,04,18,09,44,16.80
2021,04,18,09,45,16.80
2021,04,18,09,46,16.90
2021,04,18,09,47,17.00
2021,04,18,09,48,17.00
2021,04,18,09,49,17.10
2021,04,18,09,50,17.20
2021,04,18,09,51,17.30
2021,04,18,09,52,17.30
2021,04,18,09,53,17.30
2021,04,18,09,54,17.40
2021,04,18,09,55,17.40
2021,04,18,09,56,17.40
2021,04,18,09,57,17.40
2021,04,18,09,58,17.40
2021,04,18,09,59,17.50
2021,04,18,10,00,17.50
2021,04,18,10,01,17.50
2021,04,18,10,02,17.60
2021,04,18,10,03,17.60
2021,04,18,10,04,17.60
2021,04,18,10,05,17.70
2021,04,18,10,06,17.70
2021,04,18,10,07,17.70
2021,04,18,10,08,17.80
2021,04,18,10,09,17.80
2021,04,18,10,10,17.80
2021,04,18,10,11,17.80
2021,04,18,10,12,17.80
2021,04,18,10,13,17.80
2021,04,18,10,14,17.80
2021,04,18,10,15,17.90
2021,04,18,10,16,17.90
2021,04,18,10,17,17.90
2021,04,18,10,18,18.00
2021,04,18,10,19,18.10
2021,04,18,10,20,18.10
2021,04,18,10,21,18.10
2021,04,18,10,22,18.00
2021,04,18,10,23,17.90
2021,04,18,10,24,17.80
2021,04,18,10,25,17.70
2021,04,18,10,26,17.80
2021,04,18,10,27,17.80
2021,04,18,10,28,17.90
2021,04,18,10,29,17.90
2021,04,18,10,30,17.90
2021,04,18,10,31,17.90
2021,04,18,10,32,17.90
2021,04,18,10,33,17.90
2021,04,18,10,34,18.00
2021,04,18,10,35,18.10
2021,04,18,10,36,18.10
2021,04,18,10,37,18.20
2021,04,18,10,38,18.20
2021,04,18,10,39,18.20
2021,04,18,10,40,18.20
2021,04,18,10,41,18.20
2021,04,18,10,42,18.30
2021,04,18,10,43,18.40
2021,04,18,10,44,18.40
2021,04,18,10,45,18.50
2021,04,18,10,46,18.50
2021,04,18,10,47,18.50
2021,04,18,10,48,18.50
2021,04,18,10,49,18.50
2021,04,18,10,50,18.50
2021,04,18,10,51,18.50
2021,04,18,10,52,18.50
2021,04,18,10,53,18.50
2021,04,18,10,54,18.50
2021,04,18,10,55,18.60
2021,04,18,10,56,18.70
2021,04,18,10,57,18.70
2021,04,18,10,58,18.80
2021,04,18,10,59,18.80
2021,04,18,11,00,18.80
2021,04,18,11,01,18.80
2021,04,18,11,02,18.90
2021,04,18,11,03,18.90
2021,04,18,11,04,19.00
2021,04,18,11,05,19.10
2021,04,18,11,06,19.10
2021,04,18,11,07,19.00
2021,04,18,11,08,18.90
2021,04,18,11,09,18.90
2021,04,18,11,10,18.70
2021,04,18,11,11,18.60
2021,04,18,11,12,18.60
2021,04,18,11,13,18.40
2021,04,18,11,14,18.20
2021,04,18,11,15,18.10
2021,04,18,11,16,17.90
2021,04,18,11,17,17.90
2021,04,18,11,18,17.80
2021,04,18,11,19,17.70
2021,04,18,11,20,17.60
2021,04,18,11,21,17.50
2021,04,18,11,22,17.50
2021,04,18,11,23,17.40
2021,04,18,11,24,17.30
2021,04,18,11,25,17.30
2021,04,18,11,26,17.10
2021,04,18,11,27,17.00
2021,04,18,11,28,17.00
2021,04,18,11,29,16.90
2021,04,18,11,30,16.80
2021,04,18,11,31,16.70
2021,04,18,11,32,16.70
2021,04,18,11,33,16.60
2021,04,18,11,34,16.60
2021,04,18,11,35,16.50
2021,04,18,11,36,16.50
2021,04,18,11,37,16.40
2021,04,18,11,38,16.40
2021,04,18,11,39,16.30
2021,04,18,11,40,16.30
2021,04,18,11,41,16.40
2021,04,18,11,42,16.40
2021,04,18,11,43,16.40
2021,04,18,11,44,16.30
2021,04,18,11,45,16.30
2021,04,18,11,46,16.20
2021,04,18,11,47,16.10
2021,04,18,11,48,16.00
2021,04,18,11,49,15.80
2021,04,18,11,50,15.80
2021,04,18,11,51,15.80
2021,04,18,11,52,15.80
2021,04,18,11,53,15.70
2021,04,18,11,54,15.60
2021,04,18,11,55,15.60
2021,04,18,11,56,15.50
2021,04,18,11,57,15.50
2021,04,18,11,58,15.50
2021,04,18,11,59,15.60
2021,04,18,12,00,15.70
2021,04,18,12,01,15.70
2021,04,18,12,02,15.70
2021,04,18,12,03,15.70
2021,04,18,12,04,15.80
2021,04,18,12,05,15.80
2021,04,18,12,06,15.80
2021,04,18,12,07,16.00
2021,04,18,12,08,16.10
2021,04,18,12,09,16.20
2021,04,18,12,10,16.30
2021,04,18,12,11,16.40
2021,04,18,12,12,16.40
2021,04,18,12,13,16.40
2021,04,18,12,14,16.40
2021,04,18,12,15,16.50
2021,04,18,12,16,16.50
2021,04,18,12,17,16.40
2021,04,18,12,18,16.40
2021,04,18,12,19,16.50
2021,04,18,12,20,16.60
2021,04,18,12,21,16.60
2021,04,18,12,22,16.70
2021,04,18,12,23,16.80
2021,04,18,12,24,16.90
2021,04,18,12,25,17.00
2021,04,18,12,26,17.00
2021,04,18,12,27,17.00
2021,04,18,12,28,17.00
2021,04,18,12,29,17.00
2021,04,18,12,30,17.00
2021,04,18,12,31,17.00
2021,04,18,12,32,17.10
2021,04,18,12,33,17.10
2021,04,18,12,34,17.20
2021,04,18,12,35,17.20
2021,04,18,12,36,17.20
2021,04,18,12,37,17.20
2021,04,18,12,38,17.30
2021,04,18,12,39,17.30
2021,04,18,12,40,17.30
2021,04,18,12,41,17.40
2021,04,18,12,42,17.40
2021,04,18,12,43,17.40
2021,04,18,12,44,17.50
2021,04,18,12,45,17.50
2021,04,18,12,46,17.60
2021,04,18,12,47,17.70
2021,04,18,12,48,17.80
2021,04,18,12,49,17.90
2021,04,18,12,50,17.90
2021,04,18,12,51,18.00
2021,04,18,12,52,18.10
2021,04,18,12,53,18.10
2021,04,18,12,54,18.20
2021,04,18,12,55,18.20
2021,04,18,12,56,18.20
2021,04,18,12,57,18.30
2021,04,18,12,58,18.30
2021,04,18,12,59,18.30
2021,04,18,13,00,18.40
2021,04,18,13,01,18.50
2021,04,18,13,02,18.60
2021,04,18,13,03,18.60
2021,04,18,13,04,18.60
2021,04,18,13,05,18.60
2021,04,18,13,06,18.70
2021,04,18,13,07,18.80
2021,04,18,13,08,18.80
2021,04,18,13,09,18.80
2021,04,18,13,10,18.80
2021,04,18,13,11,18.90
2021,04,18,13,12,18.90
2021,04,18,13,13,18.90
2021,04,18,13,14,18.80
2021,04,18,13,15,18.80
2021,04,18,13,16,18.80
2021,04,18,13,17,18.90
2021,04,18,13,18,18.90
2021,04,18,13,19,18.90
2021,04,18,13,20,18.90
2021,04,18,13,21,18.90
2021,04,18,13,22,18.90
2021,04,18,13,23,19.00
2021,04,18,13,24,19.10
2021,04,18,13,25,19.10
2021,04,18,13,26,19.10
2021,04,18,13,27,19.10
2021,04,18,13,28,19.10
2021,04,18,13,29,19.10
2021,04,18,13,30,19.20
2021,04,18,13,31,19.20
2021,04,18,13,32,19.20
2021,04,18,13,33,19.30
2021,04,18,13,34,19.30
2021,04,18,13,35,19.20
2021,04,18,13,36,19.20
2021,04,18,13,37,19.30
2021,04,18,13,38,19.40
2021,04,18,13,39,19.50
2021,04,18,13,40,19.50
2021,04,18,13,41,19.50
2021,04,18,13,42,19.40
2021,04,18,13,43,19.30
2021,04,18,13,44,19.30
2021,04,18,13,45,19.20
2021,04,18,13,46,19.10
2021,04,18,13,47,19.20
2021,04,18,13,48,19.10
2021,04,18,13,49,19.00
2021,04,18,13,50,18.90
2021,04,18,13,51,18.90
2021,04,18,13,52,18.90
2021,04,18,13,53,19.00
2021,04,18,13,54,19.10
2021,04,18,13,55,19.20
2021,04,18,13,56,19.30
2021,04,18,13,57,19.40
2021,04,18,13,58,19.50
2021,04,18,13,59,19.60
2021,04,18,14,00,19.70
2021,04,18,14,01,19.70
2021,04,18,14,02,19.80
2021,04,18,14,03,19.70
2021,04,18,14,04,19.70
2021,04,18,14,05,19.60
2021,04,18,14,06,19.50
2021,04,18,14,07,19.50
2021,04,18,14,08,19.50
2021,04,18,14,09,19.50
2021,04,18,14,10,19.50
2021,04,18,14,11,19.60
2021,04,18,14,12,19.50
2021,04,18,14,13,19.40
2021,04,18,14,14,19.30
2021,04,18,14,15,19.20
2021,04,18,14,16,19.10
2021,04,18,14,17,19.20
2021,04,18,14,18,19.20
2021,04,18,14,19,19.30
2021,04,18,14,20,19.40
2021,04,18,14,21,19.50
2021,04,18,14,22,19.50
2021,04,18,14,23,19.40
2021,04,18,14,24,19.30
2021,04,18,14,25,19.30
2021,04,18,14,26,19.30
2021,04,18,14,27,19.20
2021,04,18,14,28,19.10
2021,04,18,14,29,19.10
2021,04,18,14,30,19.10
2021,04,18,14,31,19.10
2021,04,18,14,32,19.10
2021,04,18,14,33,19.10
2021,04,18,14,34,18.90
2021,04,18,14,35,19.00
2021,04,18,14,36,19.00
2021,04,18,14,37,18.90
2021,04,18,14,38,18.90
2021,04,18,14,39,18.80
2021,04,18,14,40,18.80
2021,04,18,14,41,18.90
2021,04,18,14,42,18.90
2021,04,18,14,43,19.00
2021,04,18,14,44,19.10
2021,04,18,14,45,19.10
2021,04,18,14,46,19.10
2021,04,18,14,47,19.10
2021,04,18,14,48,19.10
2021,04,18,14,49,19.10
2021,04,18,14,50,19.10
2021,04,18,14,51,19.00
2021,04,18,14,52,18.90
2021,04,18,14,53,18.90
2021,04,18,14,54,18.90
2021,04,18,14,55,18.90
2021,04,18,14,56,18.90
2021,04,18,14,57,18.80
2021,04,18,14,58,18.80
2021,04,18,14,59,18.80
2021,04,18,15,00,18.90
2021,04,18,15,01,19.00
2021,04,18,15,02,19.10
2021,04,18,15,03,19.10
2021,04,18,15,04,19.10
2021,04,18,15,05,19.10
2021,04,18,15,06,19.10
2021,04,18,15,07,19.10
2021,04,18,15,08,19.20
2021,04,18,15,09,19.30
2021,04,18,15,10,19.30
2021,04,18,15,11,19.40
2021,04,18,15,12,19.50
2021,04,18,15,13,19.50
2021,04,18,15,14,19.50
2021,04,18,15,15,19.50
2021,04,18,15,16,19.60
2021,04,18,15,17,19.60
2021,04,18,15,18,19.60
2021,04,18,15,19,19.60
2021,04,18,15,20,19.60
2021,04,18,15,21,19.60
2021,04,18,15,22,19.70
2021,04,18,15,23,19.80
2021,04,18,15,24,19.90
2021,04,18,15,25,19.90
2021,04,18,15,26,20.00
2021,04,18,15,27,20.10
2021,04,18,15,28,20.20
2021,04,18,15,29,20.20
2021,04,18,15,30,20.40
2021,04,18,15,31,20.50
2021,04,18,15,32,20.60
2021,04,18,15,33,20.70
2021,04,18,15,34,20.80
2021,04,18,15,35,21.00
2021,04,18,15,36,21.00
2021,04,18,15,37,21.10
2021,04,18,15,38,21.00
2021,04,18,15,39,21.10
2021,04,18,15,40,21.10
2021,04,18,15,41,21.10
2021,04,18,15,42,21.20
2021,04,18,15,43,21.20
2021,04,18,15,44,21.20
2021,04,18,15,45,21.30
2021,04,18,15,46,21.30
2021,04,18,15,47,21.20
2021,04,18,15,48,21.20
2021,04,18,15,49,21.20
2021,04,18,15,50,21.10
2021,04,18,15,51,21.10
2021,04,18,15,52,21.00
2021,04,18,15,53,21.00
2021,04,18,15,54,20.90
2021,04,18,15,55,20.80
2021,04,18,15,56,20.70
2021,04,18,15,57,20.60
2021,04,18,15,58,20.50
2021,04,18,15,59,20.40
2021,04,18,16,00,20.30
2021,04,18,16,01,20.30
2021,04,18,16,02,20.30
2021,04,18,16,03,20.20
2021,04,18,16,04,20.20
2021,04,18,16,05,20.20
2021,04,18,16,06,20.20
2021,04,18,16,07,20.20
2021,04,18,16,08,20.20
2021,04,18,16,09,20.20
2021,04,18,16,10,20.20
2021,04,18,16,11,20.20
2021,04,18,16,12,20.20
2021,04,18,16,13,20.20
2021,04,18,16,14,20.20
2021,04,18,16,15,20.20
2021,04,18,16,16,20.20
2021,04,18,16,17,20.20
2021,04,18,16,18,20.20
2021,04,18,16,19,20.30
2021,04,18,16,20,20.40
2021,04,18,16,21,20.40
2021,04,18,16,22,20.50
2021,04,18,16,23,20.40
2021,04,18,16,24,20.40
2021,04,18,16,25,20.20
2021,04,18,16,26,20.00
2021,04,18,16,27,19.70
2021,04,18,16,28,19.40
2021,04,18,16,29,19.10
2021,04,18,16,30,18.90
2021,04,18,16,31,18.80
2021,04,18,16,32,18.70
2021,04,18,16,33,18.50
2021,04,18,16,34,18.30
2021,04,18,16,35,18.20
2021,04,18,16,36,18.10
2021,04,18,16,37,18.00
2021,04,18,16,38,17.90
2021,04,18,16,39,17.70
2021,04,18,16,40,17.50
2021,04,18,16,41,17.30
2021,04,18,16,42,17.10
2021,04,18,16,43,17.10
2021,04,18,16,44,17.00
2021,04,18,16,45,17.00
2021,04,18,16,46,16.90
2021,04,18,16,47,16.80
2021,04,18,16,48,16.70
2021,04,18,16,49,16.70
2021,04,18,16,50,16.70
2021,04,18,16,51,16.80
2021,04,18,16,52,16.80
2021,04,18,16,53,16.90
2021,04,18,16,54,17.00
2021,04,18,16,55,17.00
2021,04,18,16,56,17.20
2021,04,18,16,57,17.30
2021,04,18,16,58,17.30
2021,04,18,16,59,17.50
2021,04,18,17,00,17.60
2021,04,18,17,01,17.70
2021,04,18,17,02,17.80
2021,04,18,17,03,17.90
2021,04,18,17,04,18.00
2021,04,18,17,05,18.10
2021,04,18,17,06,18.20
2021,04,18,17,07,18.30
2021,04,18,17,08,18.40
2021,04,18,17,09,18.50
2021,04,18,17,10,18.60
2021,04,18,17,11,18.80
2021,04,18,17,12,18.90
2021,04,18,17,13,18.90
2021,04,18,17,14,18.90
2021,04,18,17,15,18.90
2021,04,18,17,16,18.90
2021,04,18,17,17,18.90
2021,04,18,17,18,18.90
2021,04,18,17,19,18.90
2021,04,18,17,20,18.90
2021,04,18,17,21,18.90
2021,04,18,17,22,18.80
2021,04,18,17,23,18.80
2021,04,18,17,24,18.80
2021,04,18,17,25,18.70
2021,04,18,17,26,18.70
2021,04,18,17,27,18.80
2021,04,18,17,28,18.80
2021,04,18,17,29,18.90
2021,04,18,17,30,18.90
2021,04,18,17,31,19.00
2021,04,18,17,32,19.10
2021,04,18,17,33,19.10
2021,04,18,17,34,19.10
2021,04,18,17,35,19.10
2021,04,18,17,36,19.10
2021,04,18,17,37,19.10
2021,04,18,17,38,19.10
2021,04,18,17,39,19.10
2021,04,18,17,40,19.10
2021,04,18,17,41,19.10
2021,04,18,17,42,19.10
2021,04,18,17,43,19.10
2021,04,18,17,44,19.10
2021,04,18,17,45,19.10
2021,04,18,17,46,19.20
2021,04,18,17,47,19.40
2021,04,18,17,48,19.50
2021,04,18,17,49,19.60
2021,04,18,17,50,19.70
2021,04,18,17,51,19.90
2021,04,18,17,52,19.90
2021,04,18,17,53,20.00
2021,04,18,17,54,20.10
2021,04,18,17,55,20.20
2021,04,18,17,56,20.20
2021,04,18,17,57,20.20
2021,04,18,17,58,20.20
2021,04,18,17,59,20.30
2021,04,18,18,00,20.30
2021,04,18,18,01,20.30
2021,04,18,18,02,20.30
2021,04,18,18,03,20.30
2021,04,18,18,04,20.40
2021,04,18,18,05,20.40
2021,04,18,18,06,20.40
2021,04,18,18,07,20.40
2021,04,18,18,08,20.40
2021,04,18,18,09,20.40
2021,04,18,18,10,20.50
2021,04,18,18,11,20.50
2021,04,18,18,12,20.60
2021,04,18,18,13,20.60
2021,04,18,18,14,20.60
2021,04,18,18,15,20.70
2021,04,18,18,16,20.70
2021,04,18,18,17,20.70
2021,04,18,18,18,20.80
2021,04,18,18,19,20.80
2021,04,18,18,20,20.90
2021,04,18,18,21,20.90
2021,04,18,18,22,20.90
2021,04,18,18,23,20.90
2021,04,18,18,24,20.90
2021,04,18,18,25,20.90
2021,04,18,18,26,20.80
2021,04,18,18,27,20.80
2021,04,18,18,28,20.80
2021,04,18,18,29,20.80
2021,04,18,18,30,20.80
2021,04,18,18,31,20.80
2021,04,18,18,32,20.80
2021,04,18,18,33,20.80
2021,04,18,18,34,20.80
2021,04,18,18,35,20.80
2021,04,18,18,36,20.80
2021,04,18,18,37,20.80
